[[{"header":{"parameterUnit":"m.s-1","parameterCategory":1,"la1":30.2991,"la2":30.254,"lo1":-89.0895,"lo2":-89.0444,"dy":0.0017,"dx":0.0017,"nx":28,"ny":28,"refTime":"2025-06-22T21:00:00:Z","depth":0,"parameterNumber":2,"parameterNumberName":"U-component_of_WINDS"},"data":[0,0,0,0,0,0,0,0,0,0,0,0,0,0,0,0,0,0,0,0,0,0,0,0,0,0,0,0,0,0,0,0,0,0,0,0,0,0,0,0,0,0,0,0,0,0,0,0,0,0,0,0,0,0,0,0,0,0,-2.0675,-2.0676,0,-2.0719,-2.072,-2.0721,-2.0696,-2.0695,-2.0693,-2.0692,-2.074,-2.0742,-2.0745,0,0,0,0,0,0,0,0,0,0,0,0,0,-2.0572,-2.0574,-2.0675,-2.0676,-2.0676,-2.0719,-2.072,-2.0721,-2.0696,-2.0695,-2.0693,-2.0692,-2.0739,-2.0742,-2.0745,0,0,0,0,0,0,0,0,0,0,0,0,0,-2.0617,-2.0575,-2.0675,-2.0669,-2.0669,-2.0719,-2.072,-2.0721,-2.0696,-2.0694,-2.0693,-2.0691,-2.0738,-2.0742,-2.0745,-2.0805,0,0,-2.0757,-2.0758,0,0,0,0,0,0,0,0,-2.0614,-2.0621,-2.067,-2.067,-2.067,-2.07,-2.0701,-2.0749,-2.0697,-2.0686,-2.0692,-2.069,-2.0728,-2.0733,-2.0745,-2.0807,-2.0809,-2.0757,-2.0759,-2.0761,-2.0762,0,0,0,0,0,0,0,-2.0611,-2.0619,-2.0693,-2.067,-2.067,-2.0665,-2.0669,-2.071,-2.0717,-2.0687,-2.0685,-2.0691,-2.0728,-2.0742,-2.0746,-2.081,-2.0757,-2.076,-2.0762,-2.0764,-2.0924,-2.0926,0,0,0,0,0,0,-2.0608,-2.0616,-2.0691,-2.0694,-2.0637,-2.0669,-2.0673,-2.0692,-2.0717,-2.0719,-2.0692,-2.0689,-2.0736,-2.0742,-2.0748,-2.0819,-2.0761,-2.0764,-2.0766,-2.0922,-2.0924,-2.0926,0,0,0,0,0,0,-2.0606,-2.0615,-2.069,-2.0655,-2.0664,-2.0672,-2.0694,-2.0694,-2.0708,-2.0721,-2.0722,-2.0705,-2.0735,-2.0743,-2.0791,-2.0821,-2.0766,-2.0769,-2.0919,-2.0922,-2.0925,-2.0963,0,0,0,0,0,0,-2.0603,-2.0614,-2.0636,-2.0655,-2.0666,-2.0731,-2.0696,-2.0696,-2.0714,-2.071,-2.0733,-2.0735,-2.0734,-2.0786,-2.0794,-2.0825,-2.0772,-2.0916,-2.0921,-2.0924,-2.0959,-2.0967,-2.0974,0,0,0,0,0,-2.06,-2.0646,-2.0638,-2.0647,-2.0693,-2.0733,-2.0739,-2.0737,-2.0716,-2.0739,-2.0747,-2.0734,-2.0816,-2.0791,-2.08,-2.0832,-2.0915,-2.0919,-2.0924,-2.0956,-2.0966,-2.0974,0,0,0,0,0,0,-2.0631,-2.0648,-2.0639,-2.0693,-2.0712,-2.0729,-2.0757,-2.0747,-2.0773,-2.0769,-2.0766,-2.0771,-2.0822,-2.0832,-2.0803,-2.0892,-2.0862,-2.0869,-2.0883,-2.0892,-2.09,-2.0897,-2.0775,0,0,0,0,0,-2.0644,-2.0674,-2.0688,-2.0734,-2.0743,-2.0749,-2.0766,-2.0763,-2.0782,-2.079,-2.0802,-2.0823,-2.0853,-2.0873,-2.0902,-2.096,-2.0966,-2.0987,-2.0995,-2.1001,-2.1007,-2.104,-2.105,-2.0942,-2.0942,-2.0941,0,0,-2.0671,-2.0684,-2.0704,-2.074,-2.0754,-2.0786,-2.0756,-2.0791,-2.0815,-2.0796,-2.0842,-2.0852,-2.0874,-2.0928,-2.0953,-2.0938,-2.1038,-2.1007,-2.1011,-2.1014,-2.1045,-2.1056,-2.1065,-2.0945,-2.0944,-2.0944,0,0,-2.0738,-2.075,-2.079,-2.0805,-2.0826,-2.083,-2.0839,-2.0858,-2.0864,-2.091,-2.0897,-2.0926,-2.0978,-2.0995,-2.101,-2.1084,-2.1073,-2.1093,-2.1132,-2.1164,-2.1172,-2.118,-2.1207,-2.1216,-2.1099,-2.1099,-2.1099,0,-2.0769,-2.0816,-2.0812,-2.0848,-2.0865,-2.0849,-2.089,-2.0905,-2.0935,-2.0948,-2.0931,-2.0997,-2.1011,-2.1069,-2.1087,-2.1099,-2.1111,-2.1091,-2.1171,-2.1179,-2.1186,-2.1212,-2.1222,-2.1102,-2.1101,-2.1101,-2.1101,0,-2.0854,-2.0887,-2.0917,-2.0946,-2.0966,-2.1005,-2.1008,-2.1029,-2.1024,-2.1029,-2.1077,-2.1093,-2.1125,-2.1139,-2.1135,-2.1197,-2.1187,-2.1171,-2.1141,-2.1198,-2.1223,-2.1233,-2.1105,-2.1104,-2.1103,-2.1103,0,0,-2.0942,-2.0968,-2.0979,-2.0993,-2.1015,-2.1041,-2.1079,-2.111,-2.1129,-2.115,-2.1183,-2.1228,-2.1213,-2.123,-2.1228,-2.1256,-2.1314,-2.1236,-2.1237,-2.1251,-2.1385,-2.1398,-2.1409,-2.1307,-2.1309,-2.131,-2.1383,0,-2.101,-2.1076,-2.1074,-2.1136,-2.1167,-2.1152,-2.1186,-2.1204,-2.121,-2.1238,-2.1245,-2.1277,-2.1255,-2.1265,-2.1292,-2.1301,-2.1341,-2.1296,-2.1339,-2.134,-2.1334,-2.1421,-2.1435,-2.1503,-2.1393,-2.1394,-2.1395,0,-2.1099,-2.1123,-2.1188,-2.1207,-2.122,-2.125,-2.1278,-2.1304,-2.1325,-2.1328,-2.1348,-2.1341,-2.1381,-2.135,-2.1405,-2.1375,-2.1392,-2.1399,-2.1402,-2.1406,-2.1372,-2.1429,-2.1525,-2.1535,-2.141,-2.1409,-2.1408,0,-2.1157,-2.1206,-2.1251,-2.1263,-2.1286,-2.1307,-2.1318,-2.1337,-2.1356,-2.1381,-2.1393,-2.1423,-2.1439,-2.1463,-2.1465,-2.1442,-2.1521,-2.149,-2.1526,-2.1526,-2.1544,-2.1543,-2.1644,-2.1554,-2.1553,-2.1553,-2.1553,0,-2.1235,-2.1275,-2.1278,-2.1306,-2.1351,-2.1348,-2.1394,-2.1402,-2.1419,-2.145,-2.1439,-2.1468,-2.1468,-2.1498,-2.15,-2.1546,-2.1554,-2.1558,-2.1558,-2.1559,-2.1559,-2.1571,-2.1567,-2.1556,-2.1555,-2.1555,-2.1554,0,-2.1308,-2.1311,-2.1359,-2.1377,-2.1382,-2.1415,-2.1431,-2.1458,-2.1463,-2.1501,-2.151,-2.1519,-2.1554,-2.1558,-2.1598,-2.16,-2.1656,-2.1651,-2.1649,-2.1648,-2.1684,-2.1681,-2.1797,-2.1813,-2.1711,-2.1712,-2.1713,0,-2.1357,-2.1388,-2.1409,-2.1428,-2.1439,-2.147,-2.1489,-2.1488,-2.1509,-2.1535,-2.1559,-2.1592,-2.1619,-2.1675,-2.1686,-2.1717,-2.1713,-2.1752,-2.1718,-2.1718,-2.1715,-2.1713,-2.1717,-2.1759,-2.176,-2.1761,-2.1761,0,-2.1445,-2.1445,-2.1472,-2.15,-2.1523,-2.1546,-2.1567,-2.1583,-2.1585,-2.1609,-2.1643,-2.1664,-2.1705,-2.1739,-2.177,-2.1782,-2.1773,-2.1772,-2.1782,-2.1784,-2.1782,-2.1784,-2.1668,-2.1769,-2.1768,-2.1768,-2.1767,-2.1767,-2.1508,-2.1535,-2.1554,-2.1585,-2.1601,-2.1621,-2.1647,-2.1656,-2.1684,-2.1717,-2.1715,-2.1754,-2.1775,-2.1815,-2.1829,-2.186,-2.1848,-2.1862,-2.1866,-2.187,-2.1874,-2.1776,-2.1866,-2.1866,-2.1865,-2.1865,-2.1865,0,-2.1596,-2.1607,-2.1636,-2.1665,-2.169,-2.1678,-2.1701,-2.1723,-2.1757,-2.1777,-2.1803,-2.1843,-2.1876,-2.1889,-2.1922,-2.1944,-2.1941,-2.1953,-2.1952,-2.1955,-2.1883,-2.1871,-2.1955,-2.1955,-2.1955,-2.1955,-2.1955,-2.1955,-2.1644,-2.169,-2.1692,-2.1745,-2.1757,-2.1794,-2.1808,-2.1827,-2.1843,-2.1889,-2.1915,-2.1923,-2.1941,-2.1975,-2.2005,-2.2008,-2.2021,-2.2035,-2.2036,-2.1969,-2.196,-2.1951,-2.194,-2.2037,-2.2037,-2.2106,-2.2106,-2.2107]},{"header":{"parameterUnit":"m.s-1","parameterCategory":1,"la1":30.2991,"la2":30.254,"lo1":-89.0895,"lo2":-89.0444,"dy":0.0017,"dx":0.0017,"nx":28,"ny":28,"refTime":"2025-06-22T21:00:00:Z","depth":0,"parameterNumber":3,"parameterNumberName":"V-component_of_WINDS"},"data":[0,0,0,0,0,0,0,0,0,0,0,0,0,0,0,0,0,0,0,0,0,0,0,0,0,0,0,0,0,0,0,0,0,0,0,0,0,0,0,0,0,0,0,0,0,0,0,0,0,0,0,0,0,0,0,0,0,0,-1.3171,-1.3171,0,-1.3171,-1.3171,-1.3171,-1.3137,-1.3136,-1.3135,-1.3134,-1.3134,-1.3135,-1.3136,0,0,0,0,0,0,0,0,0,0,0,0,0,-1.3143,-1.3144,-1.3171,-1.3171,-1.3171,-1.3171,-1.3171,-1.3171,-1.3137,-1.3136,-1.3135,-1.3134,-1.3134,-1.3135,-1.3136,0,0,0,0,0,0,0,0,0,0,0,0,0,-1.315,-1.3144,-1.3171,-1.3154,-1.3153,-1.3171,-1.3171,-1.3171,-1.3137,-1.3136,-1.3135,-1.3133,-1.3133,-1.3135,-1.3136,-1.317,0,0,-1.314,-1.314,0,0,0,0,0,0,0,0,-1.315,-1.3151,-1.3157,-1.3156,-1.3154,-1.3153,-1.3161,-1.3171,-1.3138,-1.3143,-1.3134,-1.3133,-1.3141,-1.3142,-1.3145,-1.317,-1.317,-1.314,-1.3141,-1.3141,-1.3141,0,0,0,0,0,0,0,-1.3149,-1.3151,-1.3171,-1.3157,-1.3155,-1.3147,-1.3146,-1.3163,-1.315,-1.3143,-1.314,-1.3141,-1.314,-1.3144,-1.3144,-1.317,-1.314,-1.3141,-1.3142,-1.3142,-1.3225,-1.3226,0,0,0,0,0,0,-1.3151,-1.3151,-1.3171,-1.3171,-1.3149,-1.3148,-1.3148,-1.3154,-1.3149,-1.3147,-1.3142,-1.3139,-1.3142,-1.3143,-1.3144,-1.3185,-1.3141,-1.3142,-1.3143,-1.3223,-1.3225,-1.3227,0,0,0,0,0,0,-1.3151,-1.3153,-1.3171,-1.316,-1.3162,-1.315,-1.3158,-1.3155,-1.3158,-1.3149,-1.3146,-1.3147,-1.3141,-1.3143,-1.3164,-1.3185,-1.3143,-1.3144,-1.3222,-1.3224,-1.3226,-1.3267,0,0,0,0,0,0,-1.315,-1.3153,-1.3166,-1.3161,-1.3163,-1.3191,-1.3159,-1.3156,-1.3161,-1.3157,-1.3154,-1.3152,-1.314,-1.3163,-1.3166,-1.3186,-1.3145,-1.322,-1.3223,-1.3225,-1.3263,-1.327,-1.3275,0,0,0,0,0,-1.3149,-1.3178,-1.3167,-1.317,-1.3179,-1.3193,-1.3194,-1.318,-1.3162,-1.3175,-1.3169,-1.3152,-1.3182,-1.3165,-1.3168,-1.3189,-1.3219,-1.3222,-1.3225,-1.3261,-1.3269,-1.3275,0,0,0,0,0,0,-1.3186,-1.3177,-1.3165,-1.3192,-1.3194,-1.3187,-1.3203,-1.3188,-1.3194,-1.3191,-1.3173,-1.3173,-1.3198,-1.3195,-1.3177,-1.3222,-1.3197,-1.3201,-1.3223,-1.3231,-1.3236,-1.3237,-1.3146,0,0,0,0,0,-1.3197,-1.3209,-1.32,-1.3225,-1.3226,-1.3215,-1.322,-1.3209,-1.321,-1.321,-1.3205,-1.3207,-1.3216,-1.3223,-1.3231,-1.3262,-1.3262,-1.3278,-1.3284,-1.3289,-1.3293,-1.331,-1.3318,-1.3238,-1.3238,-1.3237,0,0,-1.322,-1.3217,-1.3225,-1.3233,-1.3232,-1.3245,-1.3215,-1.323,-1.324,-1.3212,-1.3233,-1.3229,-1.323,-1.3257,-1.3268,-1.3255,-1.3315,-1.3293,-1.3297,-1.3299,-1.3314,-1.3322,-1.3329,-1.324,-1.3239,-1.3239,0,0,-1.327,-1.3268,-1.3289,-1.3289,-1.3289,-1.3281,-1.3286,-1.3282,-1.3278,-1.3299,-1.3279,-1.329,-1.3306,-1.3308,-1.331,-1.3361,-1.3345,-1.3364,-1.3396,-1.3412,-1.3419,-1.3424,-1.3443,-1.345,-1.3367,-1.3368,-1.3368,0,-1.3299,-1.3318,-1.3302,-1.3318,-1.3322,-1.3298,-1.332,-1.332,-1.3323,-1.3326,-1.3312,-1.3333,-1.3331,-1.3358,-1.3371,-1.3373,-1.3379,-1.3365,-1.3419,-1.3424,-1.3429,-1.3447,-1.3454,-1.337,-1.337,-1.3369,-1.3369,0,-1.3354,-1.3367,-1.3384,-1.3388,-1.3394,-1.3413,-1.34,-1.3408,-1.3396,-1.339,-1.3411,-1.3408,-1.3416,-1.3421,-1.341,-1.3447,-1.3439,-1.3422,-1.3397,-1.344,-1.3456,-1.3463,-1.3373,-1.3372,-1.3372,-1.3371,0,0,-1.3427,-1.3421,-1.3428,-1.343,-1.3428,-1.3438,-1.3456,-1.3463,-1.3471,-1.3473,-1.3488,-1.3503,-1.3487,-1.349,-1.3479,-1.3494,-1.3535,-1.3475,-1.3475,-1.3487,-1.3577,-1.359,-1.3598,-1.3524,-1.3525,-1.3526,-1.3577,0,-1.3476,-1.3506,-1.3493,-1.3525,-1.3537,-1.3514,-1.353,-1.3531,-1.3525,-1.3535,-1.3528,-1.354,-1.3518,-1.352,-1.3533,-1.3527,-1.3553,-1.3523,-1.3539,-1.3539,-1.3541,-1.3607,-1.3621,-1.3669,-1.3583,-1.3584,-1.3585,0,-1.3537,-1.3543,-1.3576,-1.3572,-1.3577,-1.3591,-1.3597,-1.3607,-1.3607,-1.3602,-1.3606,-1.3591,-1.3609,-1.3583,-1.3607,-1.3587,-1.3593,-1.3591,-1.3592,-1.3594,-1.3566,-1.3611,-1.3683,-1.3691,-1.3595,-1.3594,-1.3593,0,-1.3588,-1.3604,-1.3626,-1.3628,-1.3624,-1.3635,-1.3633,-1.3632,-1.3638,-1.3643,-1.3646,-1.3653,-1.3658,-1.3664,-1.3652,-1.3634,-1.3678,-1.3651,-1.3675,-1.3675,-1.3686,-1.3686,-1.3761,-1.3688,-1.3688,-1.3687,-1.3687,0,-1.3645,-1.3667,-1.3649,-1.3663,-1.3687,-1.3671,-1.3694,-1.3691,-1.369,-1.3703,-1.3683,-1.3695,-1.3678,-1.3689,-1.3679,-1.3701,-1.3703,-1.37,-1.3697,-1.3702,-1.3703,-1.3706,-1.3703,-1.3689,-1.3689,-1.3689,-1.3688,0,-1.3707,-1.3696,-1.3719,-1.3713,-1.3712,-1.373,-1.3725,-1.3738,-1.373,-1.3747,-1.375,-1.3739,-1.3751,-1.3739,-1.375,-1.3743,-1.3773,-1.3765,-1.3773,-1.3772,-1.3797,-1.3795,-1.3878,-1.3888,-1.3807,-1.3808,-1.3809,0,-1.3744,-1.376,-1.3756,-1.3764,-1.3764,-1.3775,-1.3781,-1.3766,-1.3772,-1.3774,-1.3787,-1.3797,-1.3804,-1.3824,-1.3817,-1.3825,-1.3818,-1.3847,-1.3819,-1.3824,-1.382,-1.3819,-1.3821,-1.3853,-1.3854,-1.3854,-1.3855,0,-1.3812,-1.3806,-1.3815,-1.3822,-1.383,-1.3834,-1.3838,-1.3845,-1.3829,-1.3837,-1.3849,-1.3855,-1.3866,-1.3877,-1.3883,-1.3882,-1.3866,-1.3863,-1.387,-1.3875,-1.388,-1.3879,-1.379,-1.3862,-1.3861,-1.3861,-1.386,-1.386,-1.3864,-1.3877,-1.3877,-1.3887,-1.3888,-1.3892,-1.3904,-1.3898,-1.3908,-1.3916,-1.3906,-1.3921,-1.3921,-1.3928,-1.3928,-1.394,-1.3928,-1.3936,-1.3939,-1.3941,-1.3946,-1.3877,-1.3941,-1.394,-1.394,-1.394,-1.394,0,-1.3931,-1.393,-1.394,-1.3945,-1.3954,-1.3938,-1.3941,-1.3949,-1.3963,-1.3964,-1.3971,-1.3985,-1.3995,-1.3989,-1.3998,-1.4008,-1.4001,-1.4011,-1.4011,-1.4011,-1.3955,-1.395,-1.4017,-1.4017,-1.4017,-1.4017,-1.4017,-1.4017,-1.3968,-1.399,-1.3984,-1.4007,-1.4005,-1.4019,-1.4023,-1.4026,-1.4027,-1.4043,-1.4052,-1.4047,-1.4046,-1.4054,-1.4063,-1.4061,-1.4065,-1.4078,-1.4074,-1.4022,-1.4015,-1.4007,-1.4002,-1.4079,-1.4079,-1.4128,-1.4128,-1.4129]}]]